THORAD AGENA D DEB

Satellite information

Favourite Embed

Satellite Type and Status

DEBRISIN ORBIT

Key statistics

Satellite THORAD AGENA D DEB at a glance.

Uptime

20119

Days in orbit

Revolutions

≈ 14.0

Per day

Orbit

SSO

Sun Synchronous Orbit

Inclination

99.9

Latest

Satellite identification and parameters

Extended collection of information and parameters for THORAD AGENA D DEB.

Object identification

Identified? True

Debris? True

Object name: THORAD AGENA D DEB

International designator: 1970-025SN

Object number (NORAD): 42532

Object ID (CCSDS): 42532

Country: UNITED STATES OF AMERICA (US)

Current information (Y/N): Y

RCS size: SMALL

Orbital parameters

Period: 102.784 minutes

Inclination: 99.9339 deg

SMA: 7268.466 km

Apoapsis: 893.245 km

Periapsis: 887.418 km

RAAN: 27.3875 deg

Eccentricy: 0.0004008

Argument of periapsis: 356.389 deg

Mean anomaly: 3.7242 deg

Mean motion: 14.0100144 rev/day

Mean motion (dot): 0.00002698 rev/day2

B* drag term: 0.0018348 1/REarth

Two-line elements (TLE)

Creation date: May 7, 2025, 6:46 a.m.

Reference frame: TEME

Reference center: EARTH

Epoch: May 6, 2025, 10:36 p.m. UTC

TLE line 0: 0 THORAD AGENA D DEB

TLE line 1: 1 42532U 70025SN 25126.94192735 .00002698 00000-0 18348-2 0 9997

TLE line 2: 2 42532 99.9339 27.3875 0004008 356.3890 3.7242 14.01001440258545

Live tracking on map

Real-time ground track for satellite THORAD AGENA D DEB.

In-orbit conjunctions

A list of the most updated potential collisions computed for object THORAD AGENA D DEB.

Target Orbit TCA Probability of collision Miss distance Type
FENGYUN 1C DEB SSO 2024-11-10 19:25:34 0.0001528715 631.0 (m) DEBRIS
SL-16 DEB LEO 2024-11-07 11:55:53 0.0001140594 245.0 (m) DEBRIS

Associated space launch

Meteorological research and development satellite

THORAD AGENA D DEB was lifted into orbit during the mission ‘Thorad SLV-2G Agena D | Nimbus 4’, on board a Thorad SLV-2G Agena D space rocket.

The launch took place on April 8, 1970, 8:17 a.m. from Space Launch Complex 2E.

For more information about the launch, click the button.

Launch to space Thorad SLV-2G Agena D | Nimbus 4
Thorad SLV-2G Agena D | Nimbus 4

Agency: N/A

Status: Launch Successful

Launch date: April 8, 1970, 8:17 a.m. UTC

Rocket: Thorad SLV-2G Agena D

Launch pad: Space Launch Complex 2E

Location: Vandenberg SFB, CA, USA

...

Latest news about this satellite

There are no fresh news available about this satellite. Check back as we update our databases every day.


Newsletter sign-up

Weekly statistics, charts and insights to help you stay on top of the space industry.